| time (UTC) | temp F | wind direction | speed knots | gust knots | rain 1hr in | rain 24hr in | rain mn in | humidity % | barometer mb |
| 20260905081956 | 69 | 85 | 0.9 | 1.7 | 0.00 | 1.34 | 0.00 | 91 | 1012.7 |
| 20260905081456 | 69 | 85 | 0.9 | 2.6 | 0.00 | 1.34 | 0.00 | 91 | 1012.7 |
| 20260905080957 | 69 | 93 | 0.9 | 2.6 | 0.00 | 1.34 | 0.00 | 91 | 1012.6 |
| 20260905080456 | 69 | 128 | 0.9 | 2.6 | 0.00 | 1.34 | 0.00 | 91 | 1012.7 |
| 20260905075957 | 69 | 59 | 0.9 | 2.6 | 0.00 | 1.54 | 0.00 | 91 | 1012.8 |
| 20260905075457 | 69 | 70 | 0.9 | 1.7 | 0.00 | 1.54 | 0.00 | 91 | 1012.8 |
| 20260905074957 | 69 | 67 | 0.9 | 4.3 | 0.00 | 1.54 | 0.00 | 91 | 1012.7 |
| 20260905074456 | 69 | 74 | 1.7 | 3.5 | 0.00 | 1.54 | 0.00 | 91 | 1012.8 |
| 20260905073957 | 69 | 73 | 0.9 | 2.6 | 0.00 | 1.54 | 0.00 | 91 | 1012.8 |
| 20260905073457 | 69 | 59 | 0.0 | 1.7 | 0.00 | 1.54 | 0.00 | 91 | 1012.8 |
| 20260905072956 | 69 | 59 | 0.0 | 1.7 | 0.00 | 1.54 | 0.00 | 91 | 1012.8 |
| 20260905072457 | 69 | 4 | 0.0 | 1.7 | 0.00 | 1.54 | 0.00 | 91 | 1012.8 |
| 20260905071956 | 69 | 101 | 0.0 | 2.6 | 0.00 | 1.54 | 0.00 | 91 | 1012.9 |
| 20260905071457 | 69 | 101 | 0.9 | 2.6 | 0.00 | 1.54 | 0.00 | 91 | 1012.8 |
| 20260905070956 | 69 | 63 | 0.9 | 2.6 | 0.00 | 1.54 | 0.00 | 91 | 1012.8 |
| 20260905070456 | 69 | 71 | 0.9 | 2.6 | 0.00 | 1.54 | 0.00 | 91 | 1012.8 |
| 20260905065959 | 69 | 80 | 0.9 | 2.6 | 0.00 | 1.54 | 0.00 | 91 | 1012.8 |
| 20260905065458 | 69 | 78 | 0.0 | 2.6 | 0.00 | 1.54 | 0.00 | 91 | 1012.8 |
| 20260905064958 | 69 | 78 | 0.9 | 2.6 | 0.00 | 1.54 | 0.00 | 91 | 1012.8 |
| 20260905064457 | 70 | 39 | 0.9 | 3.5 | 0.00 | 1.54 | 0.00 | 91 | 1012.7 |
| 20260905063957 | 70 | 78 | 0.9 | 3.5 | 0.00 | 1.54 | 0.00 | 91 | 1012.6 |
| 20260905063458 | 70 | 76 | 0.9 | 2.6 | 0.00 | 1.54 | 0.00 | 91 | 1012.5 |
| 20260905062958 | 70 | 64 | 1.7 | 3.5 | 0.00 | 1.54 | 0.00 | 91 | 1012.5 |
| 20260905055457 | 71 | 98 | 0.9 | 4.3 | 0.00 | 1.54 | 0.00 | 91 | 1012.8 |
| 20260905054957 | 71 | 66 | 0.0 | 2.6 | 0.00 | 1.54 | 0.00 | 91 | 1012.8 |
| 20260905054457 | 71 | 266 | 0.9 | 2.6 | 0.00 | 1.54 | 0.00 | 91 | 1012.9 |
| 20260905053957 | 71 | 57 | 0.9 | 2.6 | 0.00 | 1.54 | 0.00 | 91 | 1012.9 |
| 20260905053457 | 71 | 68 | 0.9 | 5.2 | 0.00 | 1.54 | 0.00 | 91 | 1013.0 |
| 20260905052957 | 71 | 75 | 1.7 | 5.2 | 0.00 | 1.54 | 0.00 | 91 | 1013.0 |
| 20260905045457 | 71 | 55 | 0.0 | 0.9 | 0.00 | 1.54 | 0.00 | 91 | 1013.0 |
| 20260905044957 | 71 | 55 | 0.0 | 0.9 | 0.00 | 1.54 | 0.00 | 91 | 1012.9 |
| 20260905044457 | 71 | 55 | 0.0 | 2.6 | 0.00 | 1.54 | 0.00 | 91 | 1012.8 |
| 20260905043957 | 71 | 55 | 0.0 | 2.6 | 0.00 | 1.54 | 0.00 | 91 | 1012.7 |
| 20260905043457 | 71 | 117 | 0.0 | 1.7 | 0.00 | 1.54 | 0.00 | 91 | 1012.7 |
| 20260905042957 | 71 | 88 | 0.9 | 1.7 | 0.00 | 1.54 | 0.00 | 91 | 1012.7 |
| 20260905042456 | 71 | 120 | 0.0 | 1.7 | 0.00 | 1.54 | 0.00 | 91 | 1012.8 |
| 20260905034458 | 71 | 86 | 0.0 | 1.7 | 0.00 | 1.54 | 1.54 | 90 | 1013.3 |
| 20260905033958 | 71 | 93 | 0.9 | 1.7 | 0.00 | 1.54 | 1.54 | 90 | 1013.2 |
| 20260905033459 | 71 | 163 | 0.0 | 0.0 | 0.00 | 1.54 | 1.54 | 90 | 1013.2 |
| 20260905032959 | 71 | 163 | 0.0 | 0.0 | 0.00 | 1.54 | 1.54 | 90 | 1013.3 |
| 20260905032458 | 71 | 163 | 0.0 | 0.0 | 0.00 | 1.54 | 1.54 | 90 | 1013.4 |
| 20260905032000 | 71 | 163 | 0.0 | 0.0 | 0.00 | 1.54 | 1.54 | 90 | 1013.3 |
| 20260905031458 | 71 | 163 | 0.0 | 0.0 | 0.00 | 1.54 | 1.54 | 90 | 1013.3 |
| 20260905030959 | 71 | 163 | 0.0 | 0.0 | 0.00 | 1.54 | 1.54 | 90 | 1013.4 |
| 20260905030458 | 72 | 163 | 0.0 | 0.0 | 0.00 | 1.54 | 1.54 | 90 | 1013.3 |
| 20260905025958 | 72 | 163 | 0.0 | 0.0 | 0.00 | 1.54 | 1.54 | 90 | 1013.3 |
| 20260905025458 | 72 | 163 | 0.0 | 0.0 | 0.00 | 1.54 | 1.54 | 90 | 1013.4 |
| 20260905024958 | 72 | 163 | 0.0 | 0.0 | 0.00 | 1.54 | 1.54 | 90 | 1013.3 |
| 20260905024457 | 72 | 163 | 0.0 | 0.0 | 0.00 | 1.54 | 1.54 | 90 | 1013.3 |
| 20260905023957 | 72 | 163 | 0.0 | 0.0 | 0.00 | 1.54 | 1.54 | 90 | 1013.4 |
| 20260905023457 | 72 | 163 | 0.0 | 0.0 | 0.00 | 1.54 | 1.54 | 90 | 1013.4 |
| 20260905022957 | 72 | 163 | 0.0 | 0.0 | 0.00 | 1.54 | 1.54 | 90 | 1013.3 |
| 20260905022457 | 72 | 163 | 0.0 | 0.0 | 0.00 | 1.54 | 1.54 | 90 | 1013.3 |
| 20260905021958 | 72 | 163 | 0.0 | 0.0 | 0.00 | 1.54 | 1.54 | 90 | 1013.5 |
| 20260905021457 | 72 | 163 | 0.0 | 0.0 | 0.00 | 1.54 | 1.54 | 90 | 1013.4 |
| 20260905020957 | 72 | 163 | 0.0 | 0.0 | 0.00 | 1.54 | 1.54 | 90 | 1013.4 |
| 20260905020458 | 72 | 163 | 0.0 | 0.0 | 0.00 | 1.54 | 1.54 | 90 | 1013.3 |
| 20260905015957 | 73 | 163 | 0.0 | 0.0 | 0.00 | 1.54 | 1.54 | 90 | 1013.5 |
| 20260905015458 | 73 | 163 | 0.0 | 0.0 | 0.00 | 1.54 | 1.54 | 90 | 1013.4 |
| 20260905014958 | 73 | 163 | 0.0 | 0.0 | 0.00 | 1.54 | 1.54 | 90 | 1013.3 |
| 20260905014458 | 73 | 163 | 0.0 | 0.0 | 0.00 | 1.54 | 1.54 | 90 | 1013.4 |
| 20260905013958 | 73 | 163 | 0.0 | 0.0 | 0.00 | 1.54 | 1.54 | 90 | 1013.3 |
| 20260905013457 | 73 | 163 | 0.0 | 0.0 | 0.00 | 1.54 | 1.54 | 90 | 1013.3 |
| 20260905012958 | 73 | 163 | 0.0 | 0.0 | 0.00 | 1.54 | 1.54 | 90 | 1013.4 |
| 20260905012457 | 73 | 163 | 0.0 | 0.0 | 0.00 | 1.54 | 1.54 | 90 | 1013.5 |
| 20260905011957 | 73 | 163 | 0.0 | 0.0 | 0.00 | 1.54 | 1.54 | 90 | 1013.5 |
| 20260905011458 | 73 | 163 | 0.0 | 0.0 | 0.00 | 1.54 | 1.54 | 90 | 1013.4 |
| 20260905010957 | 73 | 163 | 0.0 | 0.0 | 0.00 | 1.54 | 1.54 | 90 | 1013.4 |
| 20260905010458 | 73 | 163 | 0.0 | 0.0 | 0.00 | 1.54 | 1.54 | 90 | 1013.3 |
| 20260905005957 | 73 | 163 | 0.0 | 0.0 | 0.00 | 1.54 | 1.54 | 89 | 1013.4 |
| 20260905005457 | 73 | 163 | 0.0 | 0.0 | 0.00 | 1.54 | 1.54 | 89 | 1013.3 |
| 20260905004957 | 74 | 163 | 0.0 | 0.0 | 0.00 | 1.54 | 1.54 | 89 | 1013.3 |
| 20260905004457 | 74 | 163 | 0.0 | 0.0 | 0.00 | 1.54 | 1.54 | 89 | 1013.3 |
| 20260905003956 | 74 | 163 | 0.0 | 0.0 | 0.00 | 1.54 | 1.54 | 89 | 1013.2 |
| 20260905003457 | 74 | 163 | 0.0 | 0.0 | 0.00 | 1.54 | 1.54 | 89 | 1013.3 |
| 20260905002959 | 74 | 163 | 0.0 | 0.0 | 0.00 | 1.54 | 1.54 | 89 | 1013.1 |
| 20260905002457 | 74 | 163 | 0.0 | 0.0 | 0.00 | 1.54 | 1.54 | 88 | 1013.1 |
| 20260905001957 | 74 | 163 | 0.0 | 0.0 | 0.00 | 1.54 | 1.54 | 88 | 1013.1 |
| 20260905001457 | 74 | 163 | 0.0 | 0.0 | 0.00 | 1.54 | 1.54 | 88 | 1013.1 |
| 20260905000958 | 75 | 163 | 0.0 | 0.0 | 0.00 | 1.54 | 1.54 | 88 | 1013.0 |
| 20260905000457 | 75 | 163 | 0.0 | 0.0 | 0.00 | 1.54 | 1.54 | 88 | 1013.0 |
| 20260904235958 | 75 | 163 | 0.0 | 0.0 | 0.00 | 1.54 | 1.54 | 88 | 1012.9 |
| 20260904235457 | 75 | 163 | 0.0 | 0.0 | 0.00 | 1.54 | 1.54 | 88 | 1012.9 |
| 20260904234958 | 75 | 163 | 0.0 | 0.0 | 0.00 | 1.54 | 1.54 | 89 | 1013.0 |
| 20260904234458 | 75 | 163 | 0.0 | 0.0 | 0.00 | 1.54 | 1.54 | 89 | 1013.0 |
| 20260904233957 | 75 | 163 | 0.0 | 0.0 | 0.00 | 1.54 | 1.54 | 89 | 1013.1 |
| 20260904233458 | 75 | 163 | 0.0 | 0.0 | 0.00 | 1.54 | 1.54 | 88 | 1013.0 |
| 20260904232959 | 75 | 163 | 0.0 | 0.0 | 0.00 | 1.54 | 1.54 | 88 | 1013.1 |
| 20260904232458 | 75 | 163 | 0.0 | 0.9 | 0.00 | 1.54 | 1.54 | 88 | 1013.2 |
| 20260904224458 | 77 | 74 | 0.0 | 0.0 | 0.00 | 1.54 | 1.54 | 87 | 1013.0 |
| 20260904223957 | 77 | 74 | 0.0 | 0.0 | 0.00 | 1.54 | 1.54 | 86 | 1012.8 |
| 20260904223458 | 77 | 74 | 0.0 | 0.0 | 0.00 | 1.54 | 1.54 | 86 | 1012.8 |
| 20260904222957 | 77 | 74 | 0.0 | 0.0 | 0.00 | 1.54 | 1.54 | 86 | 1012.8 |
| 20260904222457 | 78 | 74 | 0.0 | 0.9 | 0.00 | 1.54 | 1.54 | 85 | 1012.8 |
| 20260904221957 | 78 | 74 | 0.0 | 0.9 | 0.00 | 1.54 | 1.54 | 84 | 1012.5 |
| 20260904221457 | 79 | 78 | 0.0 | 1.7 | 0.00 | 1.54 | 1.54 | 84 | 1012.5 |
| 20260904220958 | 79 | 78 | 0.0 | 0.9 | 0.00 | 1.54 | 1.54 | 84 | 1012.4 |
| 20260904220457 | 78 | 78 | 0.0 | 0.9 | 0.00 | 1.54 | 1.54 | 84 | 1012.3 |
| 20260904220000 | 78 | 78 | 0.0 | 1.7 | 0.00 | 1.54 | 1.54 | 86 | 1012.1 |
| 20260904215457 | 78 | 78 | 0.0 | 2.6 | 0.00 | 1.54 | 1.54 | 86 | 1012.2 |
| 20260904214957 | 78 | 137 | 0.0 | 2.6 | 0.00 | 1.54 | 1.54 | 85 | 1012.3 |
| 20260904214458 | 78 | 107 | 0.0 | 0.9 | 0.00 | 1.54 | 1.54 | 86 | 1012.3 |
| 20260904213958 | 78 | 290 | 0.0 | 0.0 | 0.00 | 1.54 | 1.54 | 88 | 1012.3 |
| 20260904213457 | 77 | 290 | 0.0 | 1.7 | 0.00 | 1.54 | 1.54 | 87 | 1012.2 |
| 20260904212958 | 77 | 290 | 0.0 | 1.7 | 0.00 | 1.54 | 1.54 | 87 | 1012.3 |
| 20260904212457 | 77 | 11 | 0.0 | 0.9 | 0.00 | 1.54 | 1.54 | 86 | 1012.3 |
| 20260904211958 | 77 | 349 | 0.0 | 0.9 | 0.00 | 1.54 | 1.54 | 87 | 1012.3 |
| 20260904211458 | 77 | 99 | 0.0 | 1.7 | 0.00 | 1.54 | 1.54 | 87 | 1012.3 |
| 20260904210958 | 77 | 345 | 0.0 | 1.7 | 0.00 | 1.54 | 1.54 | 85 | 1012.3 |
| 20260904210457 | 77 | 332 | 0.9 | 1.7 | 0.00 | 1.54 | 1.54 | 84 | 1012.4 |
| 20260904210000 | 77 | 285 | 0.0 | 1.7 | 0.00 | 1.54 | 1.54 | 85 | 1012.5 |
| 20260904205458 | 77 | 329 | 0.0 | 0.9 | 0.00 | 1.54 | 1.54 | 86 | 1012.5 |
| 20260904204958 | 77 | 329 | 0.0 | 2.6 | 0.00 | 1.54 | 1.54 | 86 | 1012.7 |
| 20260904204458 | 77 | 112 | 0.0 | 2.6 | 0.00 | 1.54 | 1.54 | 87 | 1012.7 |
| 20260904203959 | 77 | 123 | 0.0 | 0.9 | 0.00 | 1.54 | 1.54 | 88 | 1012.7 |
| 20260904200000 | 76 | 258 | 0.0 | 0.9 | 0.00 | 1.54 | 1.54 | 86 | 1012.8 |
| 20260904195458 | 76 | 232 | 0.0 | 0.9 | 0.00 | 1.54 | 1.54 | 87 | 1013.2 |
| 20260904194959 | 76 | 232 | 0.0 | 0.9 | 0.00 | 1.54 | 1.54 | 87 | 1013.3 |
| 20260904194458 | 76 | 184 | 0.0 | 1.7 | 0.00 | 1.54 | 1.54 | 88 | 1013.3 |
| 20260904193959 | 76 | 184 | 0.0 | 1.7 | 0.00 | 1.54 | 1.54 | 88 | 1013.4 |
| 20260904193458 | 75 | 86 | 0.0 | 0.9 | 0.00 | 1.54 | 1.54 | 88 | 1013.3 |
| 20260904192959 | 75 | 179 | 0.0 | 1.7 | 0.00 | 1.54 | 1.54 | 89 | 1013.4 |
| 20260904192458 | 75 | 182 | 0.0 | 1.7 | 0.00 | 1.54 | 1.54 | 89 | 1013.4 |
| 20260904191958 | 75 | 45 | 0.9 | 1.7 | 0.00 | 1.54 | 1.54 | 89 | 1013.4 |
| 20260904191458 | 75 | 55 | 0.9 | 1.7 | 0.00 | 1.54 | 1.54 | 89 | 1013.4 |
| 20260904190958 | 75 | 57 | 0.9 | 1.7 | 0.00 | 1.54 | 1.54 | 90 | 1013.4 |
| 20260904190459 | 74 | 40 | 0.9 | 1.7 | 0.00 | 1.54 | 1.54 | 89 | 1013.4 |
| 20260904185957 | 75 | 38 | 0.9 | 1.7 | 0.00 | 1.57 | 1.54 | 90 | 1013.4 |
| 20260904185457 | 74 | 218 | 0.0 | 1.7 | 0.00 | 1.57 | 1.54 | 89 | 1013.5 |
| 20260904184957 | 74 | 218 | 0.9 | 2.6 | 0.00 | 1.57 | 1.54 | 90 | 1013.4 |
| 20260904184458 | 74 | 207 | 0.0 | 1.7 | 0.00 | 1.57 | 1.54 | 90 | 1013.3 |
| 20260904183957 | 74 | 49 | 0.9 | 1.7 | 0.00 | 1.57 | 1.54 | 90 | 1013.3 |
| 20260904183457 | 74 | 222 | 0.9 | 1.7 | 0.00 | 1.57 | 1.54 | 90 | 1013.3 |
| 20260904182957 | 74 | 349 | 0.0 | 1.7 | 0.00 | 1.57 | 1.54 | 91 | 1013.3 |
| 20260904182458 | 74 | 27 | 0.9 | 1.7 | 0.00 | 1.57 | 1.54 | 91 | 1013.2 |
| 20260904181957 | 74 | 69 | 0.0 | 1.7 | 0.00 | 1.57 | 1.54 | 91 | 1013.2 |
| 20260904181457 | 74 | 76 | 0.0 | 1.7 | 0.00 | 1.57 | 1.54 | 91 | 1013.2 |
| 20260904180958 | 74 | 76 | 0.0 | 2.6 | 0.00 | 1.57 | 1.54 | 91 | 1013.2 |
| 20260904180457 | 73 | 138 | 0.9 | 2.6 | 0.00 | 1.57 | 1.54 | 91 | 1013.2 |
| 20260904175958 | 74 | 93 | 0.0 | 1.7 | 0.00 | 1.81 | 1.54 | 92 | 1013.3 |
| 20260904175457 | 73 | 33 | 0.9 | 1.7 | 0.00 | 1.81 | 1.54 | 92 | 1013.3 |
| 20260904174957 | 73 | 74 | 0.9 | 1.7 | 0.00 | 1.81 | 1.54 | 92 | 1013.3 |
| 20260904174458 | 73 | 49 | 0.9 | 1.7 | 0.00 | 1.81 | 1.54 | 92 | 1013.5 |
| 20260904173957 | 73 | 84 | 0.0 | 1.7 | 0.00 | 1.81 | 1.54 | 92 | 1013.5 |
| 20260904173457 | 72 | 70 | 0.0 | 1.7 | 0.00 | 1.81 | 1.54 | 92 | 1013.5 |
| 20260904172957 | 72 | 70 | 0.0 | 1.7 | 0.00 | 1.81 | 1.54 | 92 | 1013.4 |
| 20260904172457 | 72 | 4 | 0.9 | 1.7 | 0.00 | 1.81 | 1.54 | 92 | 1013.3 |
| 20260904171958 | 72 | 100 | 0.0 | 1.7 | 0.00 | 1.81 | 1.54 | 92 | 1013.3 |
| 20260904171458 | 72 | 93 | 0.9 | 1.7 | 0.01 | 1.81 | 1.54 | 92 | 1013.2 |
| 20260904170958 | 72 | 68 | 0.9 | 1.7 | 0.01 | 1.81 | 1.54 | 92 | 1013.3 |
| 20260904170457 | 71 | 70 | 0.0 | 1.7 | 0.01 | 1.81 | 1.54 | 92 | 1013.1 |
| 20260904165958 | 71 | 37 | 0.0 | 0.9 | 0.01 | 1.81 | 1.54 | 93 | 1013.2 |
| 20260904165458 | 71 | 37 | 0.0 | 0.9 | 0.01 | 1.81 | 1.54 | 93 | 1013.1 |
| 20260904161957 | 69 | 238 | 0.0 | 1.7 | 0.01 | 1.81 | 1.54 | 92 | 1013.8 |
| 20260904161457 | 69 | 238 | 0.9 | 2.6 | 0.01 | 1.80 | 1.53 | 92 | 1013.8 |
| 20260904160957 | 69 | 182 | 0.9 | 2.6 | 0.02 | 1.80 | 1.53 | 92 | 1013.8 |
| 20260904160457 | 69 | 5 | 0.0 | 0.9 | 0.02 | 1.80 | 1.53 | 92 | 1013.8 |
| 20260904155958 | 69 | 1 | 0.0 | 0.9 | 0.02 | 1.80 | 1.53 | 92 | 1013.9 |
| 20260904155457 | 69 | 1 | 0.0 | 1.7 | 0.02 | 1.80 | 1.53 | 92 | 1014.1 |
| 20260904154957 | 69 | 1 | 0.0 | 1.7 | 0.02 | 1.80 | 1.53 | 92 | 1013.8 |
| 20260904154457 | 69 | 95 | 0.9 | 1.7 | 0.02 | 1.80 | 1.53 | 92 | 1013.3 |
| 20260904153957 | 69 | 95 | 0.0 | 1.7 | 0.03 | 1.80 | 1.53 | 92 | 1013.1 |
| 20260904153456 | 69 | 99 | 0.9 | 1.7 | 0.04 | 1.80 | 1.53 | 92 | 1013.1 |
| 20260904152957 | 69 | 149 | 0.0 | 0.9 | 0.06 | 1.80 | 1.53 | 92 | 1013.7 |
| 20260904152457 | 69 | 149 | 0.0 | 0.9 | 0.08 | 1.80 | 1.53 | 92 | 1013.6 |
| 20260904151957 | 69 | 148 | 0.9 | 1.7 | 0.09 | 1.80 | 1.53 | 92 | 1013.7 |
| 20260904151457 | 69 | 149 | 0.9 | 1.7 | 0.10 | 1.79 | 1.52 | 92 | 1013.6 |
| 20260904150957 | 69 | 212 | 0.0 | 1.7 | 0.10 | 1.78 | 1.51 | 92 | 1013.1 |
| 20260904150457 | 69 | 212 | 0.0 | 2.6 | 0.11 | 1.78 | 1.51 | 92 | 1013.0 |
| 20260904145958 | 69 | 360 | 0.9 | 4.3 | 0.13 | 1.78 | 1.51 | 92 | 1012.2 |
| 20260904145457 | 69 | 197 | 1.7 | 4.3 | 0.14 | 1.78 | 1.51 | 92 | 1012.8 |
| 20260904144957 | 69 | 326 | 1.7 | 9.6 | 0.15 | 1.78 | 1.51 | 92 | 1013.0 |
| 20260904144457 | 69 | 170 | 3.5 | 9.6 | 0.16 | 1.78 | 1.51 | 92 | 1012.3 |
| 20260904143957 | 69 | 224 | 3.5 | 8.7 | 0.17 | 1.77 | 1.50 | 92 | 1012.6 |
| 20260904143457 | 69 | 244 | 4.3 | 11.3 | 0.18 | 1.76 | 1.49 | 92 | 1012.8 |
| 20260904142957 | 69 | 247 | 3.5 | 11.3 | 0.18 | 1.74 | 1.47 | 92 | 1013.5 |
| 20260904142457 | 69 | 203 | 2.6 | 4.3 | 0.18 | 1.72 | 1.45 | 92 | 1013.9 |
| 20260904134458 | 69 | 102 | 0.0 | 2.6 | 0.23 | 1.62 | 1.35 | 92 | 1013.4 |
| 20260904133958 | 69 | 260 | 0.9 | 2.6 | 0.22 | 1.60 | 1.33 | 92 | 1013.9 |
| 20260904133458 | 69 | 168 | 0.9 | 2.6 | 0.22 | 1.58 | 1.31 | 92 | 1014.5 |
| 20260904132959 | 69 | 213 | 0.9 | 1.7 | 0.21 | 1.56 | 1.29 | 92 | 1014.7 |
| 20260904132458 | 69 | 288 | 0.0 | 1.7 | 0.21 | 1.54 | 1.27 | 92 | 1015.1 |
| 20260904131958 | 70 | 280 | 0.0 | 2.6 | 0.22 | 1.53 | 1.26 | 92 | 1015.3 |
| 20260904131457 | 70 | 9 | 0.9 | 2.6 | 0.22 | 1.52 | 1.25 | 92 | 1015.2 |
| 20260904123459 | 69 | 101 | 0.0 | 0.9 | 0.11 | 1.38 | 1.09 | 92 | 1014.6 |
| 20260904122959 | 69 | 101 | 0.0 | 0.9 | 0.11 | 1.37 | 1.08 | 92 | 1014.6 |
| 20260904122459 | 69 | 101 | 0.0 | 0.9 | 0.14 | 1.35 | 1.06 | 92 | 1014.7 |
| 20260904121957 | 69 | 101 | 0.0 | 0.9 | 0.48 | 1.33 | 1.04 | 92 | 1014.8 |
| 20260904121458 | 69 | 101 | 0.0 | 0.0 | 0.57 | 1.32 | 1.03 | 92 | 1014.7 |
| 20260904120957 | 69 | 101 | 0.0 | 0.9 | 0.60 | 1.32 | 1.03 | 92 | 1014.5 |
| 20260904120458 | 69 | 101 | 0.0 | 0.9 | 0.60 | 1.31 | 1.02 | 92 | 1014.5 |
| 20260904120000 | 69 | 101 | 0.0 | 0.0 | 0.60 | 1.31 | 1.02 | 92 | 1014.6 |
| 20260904115457 | 69 | 101 | 0.0 | 0.0 | 0.61 | 1.31 | 1.02 | 92 | 1014.5 |
| 20260904114958 | 69 | 101 | 0.0 | 0.9 | 0.60 | 1.30 | 1.01 | 92 | 1014.5 |
| 20260904114457 | 69 | 101 | 0.0 | 1.7 | 0.60 | 1.30 | 1.01 | 92 | 1014.4 |
| 20260904113958 | 69 | 101 | 0.9 | 1.7 | 0.59 | 1.28 | 0.99 | 92 | 1014.3 |
| 20260904113458 | 69 | 192 | 0.9 | 2.6 | 0.58 | 1.27 | 0.98 | 92 | 1014.8 |
| 20260904112957 | 69 | 137 | 1.7 | 5.2 | 0.57 | 1.26 | 0.97 | 92 | 1014.6 |
| 20260904112457 | 70 | 247 | 0.9 | 5.2 | 0.48 | 1.16 | 0.87 | 92 | 1015.0 |
| 20260904111958 | 70 | 350 | 1.7 | 4.3 | 0.17 | 0.85 | 0.56 | 92 | 1014.9 |
| 20260904111457 | 70 | 280 | 0.9 | 2.6 | 0.07 | 0.75 | 0.46 | 92 | 1014.2 |
| 20260904110957 | 70 | 124 | 0.0 | 0.9 | 0.04 | 0.72 | 0.43 | 92 | 1013.6 |
| 20260904110458 | 70 | 124 | 0.0 | 1.7 | 0.03 | 0.71 | 0.42 | 92 | 1013.8 |
| 20260904105957 | 70 | 82 | 0.0 | 1.7 | 0.02 | 0.70 | 0.41 | 92 | 1013.5 |
| 20260904105456 | 70 | 214 | 0.0 | 0.9 | 0.02 | 0.70 | 0.41 | 92 | 1013.4 |
| 20260904104956 | 70 | 214 | 0.0 | 0.9 | 0.02 | 0.70 | 0.41 | 92 | 1013.5 |
| 20260904104456 | 70 | 202 | 0.0 | 0.9 | 0.02 | 0.70 | 0.41 | 92 | 1013.3 |
| 20260904103957 | 70 | 202 | 0.0 | 2.6 | 0.01 | 0.69 | 0.40 | 92 | 1012.8 |
| 20260904103457 | 70 | 202 | 0.9 | 2.6 | 0.01 | 0.69 | 0.40 | 92 | 1012.8 |
| 20260904102957 | 69 | 116 | 0.0 | 0.9 | 0.01 | 0.69 | 0.40 | 92 | 1013.1 |
| 20260904102457 | 69 | 116 | 0.0 | 0.9 | 0.00 | 0.68 | 0.39 | 92 | 1012.9 |
| 20260904101956 | 69 | 149 | 0.0 | 0.9 | 0.00 | 0.68 | 0.39 | 92 | 1012.6 |
| 20260904101457 | 69 | 149 | 0.0 | 0.9 | 0.00 | 0.68 | 0.39 | 92 | 1012.5 |
| 20260904100957 | 69 | 149 | 0.0 | 0.9 | 0.00 | 0.68 | 0.39 | 92 | 1012.6 |
| 20260904100457 | 69 | 149 | 0.0 | 0.9 | 0.00 | 0.68 | 0.39 | 92 | 1012.6 |
| 20260904095957 | 69 | 86 | 0.0 | 0.9 | 0.00 | 0.68 | 0.39 | 92 | 1012.4 |
| 20260904095457 | 69 | 86 | 0.0 | 0.9 | 0.00 | 0.68 | 0.39 | 92 | 1012.2 |
| 20260904094957 | 69 | 86 | 0.0 | 0.9 | 0.00 | 0.68 | 0.39 | 92 | 1012.1 |
| 20260904094456 | 69 | 86 | 0.0 | 0.9 | 0.00 | 0.68 | 0.39 | 92 | 1012.3 |
| 20260904093958 | 69 | 113 | 0.0 | 0.9 | 0.00 | 0.68 | 0.39 | 92 | 1012.5 |
| 20260904093456 | 69 | 113 | 0.0 | 0.9 | 0.00 | 0.68 | 0.39 | 92 | 1012.2 |
| 20260904092956 | 69 | 78 | 0.0 | 1.7 | 0.00 | 0.68 | 0.39 | 92 | 1012.1 |
| 20260904092456 | 69 | 61 | 0.0 | 0.9 | 0.00 | 0.68 | 0.39 | 92 | 1012.1 |
| 20260904091956 | 70 | 61 | 0.0 | 0.9 | 0.00 | 0.68 | 0.39 | 92 | 1012.2 |
| 20260904091456 | 70 | 61 | 0.0 | 0.9 | 0.01 | 0.68 | 0.39 | 92 | 1012.3 |
| 20260904090957 | 70 | 61 | 0.0 | 0.9 | 0.01 | 0.68 | 0.39 | 92 | 1012.2 |
| 20260904090457 | 70 | 61 | 0.0 | 1.7 | 0.03 | 0.68 | 0.39 | 92 | 1012.1 |
| 20260904085957 | 70 | 64 | 0.9 | 1.7 | 0.19 | 0.68 | 0.39 | 92 | 1011.9 |
| 20260904085456 | 70 | 64 | 0.0 | 1.7 | 0.22 | 0.68 | 0.39 | 92 | 1011.9 |
| 20260904084959 | 70 | 61 | 0.9 | 1.7 | 0.27 | 0.68 | 0.39 | 92 | 1012.3 |
| 20260904084456 | 70 | 63 | 0.9 | 1.7 | 0.39 | 0.68 | 0.39 | 92 | 1012.7 |
| 20260904083957 | 70 | 355 | 0.0 | 1.7 | 0.39 | 0.68 | 0.39 | 92 | 1012.9 |
| 20260904083457 | 70 | 355 | 0.0 | 1.7 | 0.39 | 0.68 | 0.39 | 92 | 1012.7 |
| 20260904082957 | 70 | 333 | 0.0 | 1.7 | 0.39 | 0.68 | 0.39 | 92 | 1012.8 |
| 20260904082457 | 70 | 333 | 0.0 | 1.7 | 0.39 | 0.68 | 0.39 | 92 | 1012.8 |